Change the Weather History Date:

Wednesday, April 2, 2014

  Actual Average Record
Temperature  
Mean Temperature 39 °F 46 °F  
Max Temperature 46 °F 59 °F 91 °F (2012)
Min Temperature 31 °F 34 °F 15 °F (1975)
Degree Days  
Heating Degree Days 26 19  
Month to date heating degree days 57 38  
Since 1 July heating degree days 6041 5627  
Cooling Degree Days 0 0  
Month to date cooling degree days 0 0  
Year to date cooling degree days 0 1  
Moisture  
Dew Point 31 °F    
Average Humidity 64    
Maximum Humidity 82    
Minimum Humidity 45    
Precipitation  
Precipitation 0.01 in 0.08 in 1.59 in (1999)
Month to date precipitation 0.01 0.16  
Year to date precipitation 1.08 3.72  
Snow  
Snow 0.00 in 0.00 in - ()
Month to date snowfall 0.0 0.1  
Since 1 July snowfall 17.2 25.5  
Snow Depth 0.00 in    
Sea Level Pressure  
Sea Level Pressure 29.94 in    
Wind  
Wind Speed 11 mph (ENE)    
Max Wind Speed 22 mph    
Max Gust Speed 27 mph    
Visibility 8 miles    
Events Rain    
T = Trace of Precipitation, MM = Missing Value Source: NWS Daily Summary

Daily Weather History Graph

Daily Weather History Graph

Search for Another Location

Airport or City:

Trip Planner

Search our weather history database for the weather conditions in past years. The results will help you decide how hot, cold, wet, or windy it might be!

Date:

Astronomy

Apr. 02, 2014 Rise Set
Actual Time 7:05 AM CDT 7:49 PM CDT
Civil Twilight 6:37 AM CDT 8:17 PM CDT
Nautical Twilight 6:04 AM CDT 8:50 PM CDT
Astronomical Twilight 5:29 AM CDT 9:25 PM CDT
Moon 8:48 AM CDT (4/2) 11:16 PM CDT (4/2)
Length of Visible Light 13h 40m
Length of Day
12h 44m
Waxing Crescent, 10% of the Moon is Illuminated
Apr 2
Waxing Crescent
Apr 7
First Quarter
Apr 15
Full
Apr 22
Last Quarter
Apr 29
New

Hourly Weather History & Observations

Time (CDT) Temp. Windchill Dew Point Humidity Pressure Visibility Wind Dir Wind Speed Gust Speed Precip Events Conditions
12:52 AM 32.0 °F 27.5 °F 19.0 °F 59% 30.10 in 10.0 mi North 4.6 mph - N/A   Partly Cloudy
1:52 AM 30.9 °F 24.3 °F 19.9 °F 64% 30.09 in 10.0 mi North 6.9 mph - N/A   Scattered Clouds
2:52 AM 32.0 °F 24.8 °F 19.9 °F 61% 30.08 in 10.0 mi NNW 8.1 mph - N/A   Overcast
3:52 AM 33.1 °F 24.9 °F 21.0 °F 61% 30.07 in 10.0 mi North 10.4 mph - N/A   Overcast
4:52 AM 32.0 °F 24.2 °F 21.0 °F 64% 30.06 in 10.0 mi North 9.2 mph - N/A   Overcast
5:52 AM 35.1 °F 29.3 °F 24.1 °F 64% 30.02 in 10.0 mi NE 6.9 mph - N/A   Overcast
7:52 AM 35.1 °F 26.4 °F 27.0 °F 72% 30.05 in 10.0 mi ENE 12.7 mph - N/A   Mostly Cloudy
8:52 AM 37.0 °F 29.8 °F 27.0 °F 67% 30.04 in 10.0 mi ENE 10.4 mph - N/A   Mostly Cloudy
9:52 AM 41.0 °F 32.5 °F 26.1 °F 55% 30.02 in 10.0 mi East 17.3 mph 23.0 mph N/A   Mostly Cloudy
10:52 AM 42.1 °F 34.9 °F 25.0 °F 51% 30.01 in 10.0 mi East 13.8 mph - N/A   Overcast
11:52 AM 45.0 °F 37.9 °F 25.0 °F 46% 29.99 in 10.0 mi ENE 16.1 mph 20.7 mph N/A   Overcast
12:52 PM 45.0 °F 39.3 °F 25.0 °F 46% 29.97 in 10.0 mi East 11.5 mph 20.7 mph N/A   Overcast
1:52 PM 45.0 °F 39.7 °F 26.1 °F 48% 29.94 in 10.0 mi ENE 10.4 mph 27.6 mph 0.00 in Rain Light Rain
2:19 PM 44.1 °F 38.6 °F 30.0 °F 58% 29.90 in 10.0 mi ENE 10.4 mph - 0.00 in   Overcast
2:52 PM 46.0 °F 39.3 °F 30.9 °F 56% 29.91 in 10.0 mi East 16.1 mph 24.2 mph 0.00 in   Overcast
3:52 PM 45.0 °F 38.9 °F 34.0 °F 65% 29.89 in 7.0 mi East 12.7 mph 20.7 mph 0.00 in Rain Light Rain
4:52 PM 46.4 °F 38.7 °F 33.8 °F 62% 29.85 in 10.0 mi East 20.7 mph 27.6 mph N/A   Overcast
5:35 PM 43.0 °F 37.2 °F 37.9 °F 82% 29.87 in 2.5 mi East 10.4 mph - 0.01 in Rain Light Rain
5:52 PM 42.1 °F 37.7 °F 39.0 °F 89% 29.88 in 2.5 mi East 6.9 mph - 0.01 in Rain Light Rain
6:06 PM 42.1 °F 35.2 °F 39.0 °F 89% 29.86 in 3.0 mi East 12.7 mph - 0.00 in Rain Light Rain
6:18 PM 42.1 °F 37.1 °F 37.9 °F 85% 29.86 in 2.0 mi East 8.1 mph - 0.00 in   Light Drizzle
6:44 PM 42.1 °F 37.1 °F 37.9 °F 85% 29.86 in 3.0 mi East 8.1 mph - 0.00 in   Light Drizzle
6:52 PM 42.1 °F 37.1 °F 37.9 °F 85% 29.88 in 4.0 mi East 8.1 mph - 0.00 in   Light Drizzle
7:36 PM 42.1 °F 38.4 °F 37.9 °F 85% 29.85 in 7.0 mi ENE 5.8 mph - 0.00 in   Overcast
7:52 PM 43.0 °F 38.8 °F 37.0 °F 80% 29.87 in 10.0 mi NE 6.9 mph - 0.00 in   Overcast
8:52 PM 43.0 °F 38.2 °F 37.0 °F 80% 29.88 in 10.0 mi ENE 8.1 mph - N/A   Overcast
9:52 PM 44.1 °F 40.8 °F 37.0 °F 76% 29.88 in 9.0 mi East 5.8 mph - N/A   Overcast
10:52 PM 43.0 °F 38.2 °F 37.0 °F 80% 29.85 in 7.0 mi East 8.1 mph 19.6 mph N/A   Overcast
11:13 PM 43.0 °F 37.2 °F 37.9 °F 82% 29.80 in 7.0 mi ENE 10.4 mph - N/A   Overcast
11:52 PM 42.1 °F 37.7 °F 37.9 °F 85% 29.81 in 5.0 mi ENE 6.9 mph - N/A   Overcast